User: anonymous   Login
Location: Unspecified
(0.0000°N, 0.0000°E)
Time: 14:15:28
(UTC+00:00)
Language:

Tiros 1 - Orbit

View from above orbital plane
View from above orbital plane
View from above satellite
View from above satellite

Ground track
Ground track

The orbit data is extracted from the following two-line orbital elements,

1    29U 60002B   19052.12536877 -.00000130  00000-0  11636-4 0  9991
2    29  48.3801  64.7548 0024415 327.6841  32.2574 14.74288551147480
Epoch (UTC): 21 February 2019 03:00:31
Eccentricity: 0.0024415
inclination: 48.3801°
perigee height: 630 km
apogee height: 664 km
right ascension of ascending node: 64.7548°
argument of perigee: 327.6841°
revolutions per day: 14.74288551
mean anomaly at epoch: 32.2574°
orbit number at epoch: 14748

The dashed part of the orbit path shows where the satellite is in the earth's shadow,  

DLR